Volver al catálogo

COSMOS 2251 DEB

ActivoLEO
NORAD 34476·DEBRIS·🇷🇺 Russia

Lanzado Jun 16, 1993 desde Plesetsk Cosmodrome

Loading…

Próximos Pases (próximas 24 horas)

TLE

ActualizadoSource: Space-Track

Época: Sep 14, 2026, 15:42 UTC

1 34476U 93036TV  26257.65432961  .00002470  00000-0  15609-2 0  9999
2 34476  74.0083 336.5139 0303886 136.0279 226.5464 13.84212332874539

Sigue COSMOS 2251 DEB en tiempo real con AllMySat

Download on the App Store